Weather History for Cincinnati, OH

Change the Weather History Date:

Saturday, November 2, 2013

  Actual Average Record
Temperature  
Mean Temperature 50 °F -  
Max Temperature 57 °F 63 °F 82 °F (1987)
Min Temperature 45 °F 43 °F 25 °F (2002)
Degree Days  
Heating Degree Days 14    
Moisture  
Dew Point 39 °F    
Average Humidity 64    
Maximum Humidity 82    
Minimum Humidity 49    
Precipitation  
Precipitation 0.00 in - - ()
Sea Level Pressure  
Sea Level Pressure 29.90 in    
Wind  
Wind Speed 9 mph (WNW)    
Max Wind Speed 14 mph    
Max Gust Speed 20 mph    
Visibility 10 miles    
Events      
Averages and records for this station are not official NWS values.
T = Trace of Precipitation, MM = Missing Value Source: NWS Daily Summary

Daily Weather History Graph

Daily Weather History Graph

Search for Another Location

Airport:

Trip Planner

Search our weather history database for the weather conditions in past years. The results will help you decide how hot, cold, wet, or windy it might be!

Date:

Astronomy

Nov. 02, 2013 Rise Set
Actual Time 8:06 AM EDT 6:35 PM EDT
Civil Twilight 7:38 AM EDT 7:03 PM EDT
Nautical Twilight 7:07 AM EDT 7:34 PM EDT
Astronomical Twilight 6:35 AM EDT 8:05 PM EDT
Moon 7:03 AM EDT (11/2) 6:06 PM EDT (11/2)
Length of Visible Light 11h 24m
Length of Day
10h 28m
Waning Crescent, 1% of the Moon is Illuminated
Nov 2
Waning Crescent
Nov 3
New
Nov 10
First Quarter
Nov 17
Full
Nov 25
Last Quarter

Hourly Weather History & Observations

Time (EDT) Temp. Windchill Dew Point Humidity Pressure Visibility Wind Dir Wind Speed Gust Speed Precip Events Conditions
12:53 AM 54.0 °F - 39.0 °F 57% 29.77 in 10.0 mi WNW 10.4 mph - N/A   Overcast
1:53 AM 53.1 °F - 39.0 °F 59% 29.78 in 10.0 mi West 13.8 mph - N/A   Overcast
2:53 AM 51.1 °F - 39.0 °F 63% 29.78 in 10.0 mi West 8.1 mph - N/A   Overcast
3:53 AM 50.0 °F - 41.0 °F 71% 29.78 in 10.0 mi WSW 4.6 mph - N/A   Overcast
4:53 AM 51.1 °F - 39.9 °F 66% 29.79 in 10.0 mi West 10.4 mph - N/A   Overcast
5:53 AM 48.0 °F - 41.0 °F 77% 29.81 in 10.0 mi WSW 5.8 mph - N/A   Mostly Cloudy
6:02 AM 48.2 °F - 42.8 °F 82% 29.81 in 10.0 mi West 9.2 mph - N/A   Mostly Cloudy
6:25 AM 48.2 °F - 41.0 °F 76% 29.81 in 10.0 mi West 8.1 mph - N/A   Overcast
6:53 AM 48.9 °F - 41.0 °F 74% 29.82 in 10.0 mi West 6.9 mph - N/A   Mostly Cloudy
7:53 AM 48.0 °F - 41.0 °F 77% 29.83 in 10.0 mi West 6.9 mph - N/A   Mostly Cloudy
8:53 AM 48.0 °F - 39.9 °F 74% 29.86 in 10.0 mi NW 5.8 mph - N/A   Mostly Cloudy
9:53 AM 48.9 °F - 42.1 °F 77% 29.88 in 10.0 mi West 10.4 mph - N/A   Overcast
10:53 AM 48.9 °F - 41.0 °F 74% 29.89 in 10.0 mi West 9.2 mph - N/A   Scattered Clouds
11:53 AM 52.0 °F - 41.0 °F 66% 29.90 in 10.0 mi West 11.5 mph - N/A   Scattered Clouds
12:53 PM 53.1 °F - 41.0 °F 64% 29.91 in 10.0 mi WNW 10.4 mph 16.1 mph N/A   Mostly Cloudy
1:53 PM 55.0 °F - 39.0 °F 55% 29.90 in 10.0 mi WNW 11.5 mph - N/A   Mostly Cloudy
2:53 PM 54.0 °F - 36.0 °F 51% 29.90 in 10.0 mi WNW 8.1 mph 17.3 mph N/A   Overcast
3:53 PM 55.9 °F - 37.9 °F 51% 29.91 in 10.0 mi West 13.8 mph 19.6 mph 0.00 in   Mostly Cloudy
4:53 PM 55.0 °F - 36.0 °F 49% 29.93 in 10.0 mi WNW 8.1 mph - N/A   Mostly Cloudy
5:53 PM 53.1 °F - 35.1 °F 50% 29.96 in 10.0 mi NNW 6.9 mph - N/A   Scattered Clouds
6:53 PM 52.0 °F - 34.0 °F 50% 29.99 in 10.0 mi WNW 9.2 mph - N/A   Mostly Cloudy
7:53 PM 50.0 °F - 34.0 °F 54% 30.02 in 10.0 mi WNW 5.8 mph - N/A   Clear
8:53 PM 48.9 °F - 34.0 °F 56% 30.05 in 10.0 mi NNW 6.9 mph - N/A   Clear
9:53 PM 48.0 °F - 35.1 °F 61% 30.07 in 10.0 mi NW 6.9 mph - N/A   Clear
10:53 PM 46.0 °F - 35.1 °F 66% 30.10 in 10.0 mi Calm Calm - N/A   Clear
11:53 PM 45.0 °F 41.8 °F 37.0 °F 74% 30.12 in 10.0 mi WNW 5.8 mph - N/A   Overcast